GW3202 Weather Reports


Display with metric or nautical units.
time (UTC)temp
F
wind
direction
speed
MPH
gust
MPH
rain 1hr
in
rain 24hr
in
rain mn
in
humidity
%
barometer
mb
20260510030004 72 142 12.0 28.0 0.00 0.00 0.00 41 1018.3
20260510025003 72 176 10.0 28.0 0.00 0.00 0.00 39 1018.2
20260510023005 73 150 14.0 24.0 0.00 0.00 0.00 40 1017.8
20260510022004 73 142 8.0 30.0 0.00 0.00 0.00 39 1017.7
20260510021003 72 146 13.0 23.0 0.00 0.00 0.00 44 1017.5
20260510020003 72 142 13.0 26.0 0.00 0.00 0.00 52 1017.3
20260510015003 73 120 13.0 26.0 0.00 0.00 0.00 52 1017.1
20260510014004 74 121 6.0 25.0 0.00 0.00 0.00 53 1017.3
20260510013003 74 135 10.0 23.0 0.00 0.00 0.00 55 1017.1
20260510011003 75 147 9.0 23.0 0.00 0.00 0.00 53 1016.6
20260510010003 75 161 14.0 23.0 0.00 0.00 0.00 53 1016.7
20260510005003 76 183 10.0 23.0 0.00 0.00 0.00 53 1016.4
20260510004003 77 133 14.0 23.0 0.00 0.00 0.00 51 1016.2
20260510003004 78 176 11.0 23.0 0.00 0.00 0.00 49 1016.2
20260510002004 80 154 9.0 18.0 0.00 0.00 0.00 45 1016.2
20260510000004 81 163 8.0 24.0 0.00 0.00 0.00 44 1015.9
20260509235004 80 182 8.0 22.0 0.00 0.00 0.00 44 1016.0
20260509234003 80 173 9.0 22.0 0.00 0.00 0.00 44 1015.9
20260509233004 81 162 9.0 21.0 0.00 0.00 0.00 44 1015.8
20260509232004 81 159 7.0 21.0 0.00 0.00 0.00 43 1015.9
20260509231003 80 188 12.0 22.0 0.00 0.00 0.00 43 1015.9
20260509230003 82 151 14.0 23.0 0.00 0.00 0.00 43 1015.9
20260509225003 81 156 12.0 21.0 0.00 0.00 0.00 44 1015.8
20260509224003 81 166 10.0 20.0 0.00 0.00 0.00 43 1015.9
20260509223003 81 175 5.0 23.0 0.00 0.00 0.00 43 1015.9
20260509222004 82 172 10.0 22.0 0.00 0.00 0.00 42 1015.9
20260509220003 83 165 6.0 20.0 0.00 0.00 0.00 41 1016.0
20260509213003 86 165 6.0 20.0 0.00 0.00 0.00 39 1016.0
20260509212004 86 181 2.0 14.0 0.00 0.00 0.00 37 1016.2
20260509211003 83 177 4.0 20.0 0.00 0.00 0.00 39 1016.2
20260509210004 83 159 6.0 20.0 0.00 0.00 0.00 37 1016.6
20260509205003 84 229 5.0 16.0 0.00 0.00 0.00 35 1016.6
20260509204004 85 245 3.0 21.0 0.00 0.00 0.00 34 1016.7
20260509203003 86 256 5.0 17.0 0.00 0.00 0.00 33 1017.0
20260509202004 86 179 3.0 20.0 0.00 0.00 0.00 33 1016.9
20260509201004 86 177 7.0 21.0 0.00 0.00 0.00 32 1017.1
20260509200004 87 173 3.0 17.0 0.00 0.00 0.00 32 1017.3
20260509195004 87 206 5.0 17.0 0.00 0.00 0.00 31 1017.2
20260509194004 86 212 3.0 15.0 0.00 0.00 0.00 32 1017.2
20260509193003 85 172 9.0 20.0 0.00 0.00 0.00 33 1017.4
20260509191003 85 174 6.0 17.0 0.00 0.00 0.00 34 1018.0
20260509190003 83 174 7.0 20.0 0.00 0.00 0.00 35 1018.0
20260509185003 83 145 4.0 21.0 0.00 0.00 0.00 36 1018.1
20260509184004 84 151 7.0 21.0 0.00 0.00 0.00 36 1018.2
20260509183004 83 169 6.0 20.0 0.00 0.00 0.00 38 1018.3
20260509182004 84 135 5.0 21.0 0.00 0.00 0.00 38 1018.3
20260509180004 83 169 6.0 16.0 0.00 0.00 0.00 40 1018.3
20260509175005 82 170 5.0 15.0 0.00 0.00 0.00 42 1018.3
20260509174004 82 127 4.0 21.0 0.00 0.00 0.00 43 1018.4
20260509173004 82 144 11.0 20.0 0.00 0.00 0.00 42 1018.4
20260509172003 81 165 5.0 14.0 0.00 0.00 0.00 43 1018.5
20260509171004 81 195 6.0 14.0 0.00 0.00 0.00 44 1018.7
20260509165004 80 188 4.0 14.0 0.00 0.00 0.00 45 1018.6
20260509164004 79 177 4.0 16.0 0.00 0.00 0.00 46 1018.4
20260509163006 80 151 6.0 15.0 0.00 0.00 0.00 46 1018.6
20260509162008 78 153 10.0 15.0 0.00 0.00 0.00 47 1018.7
20260509161004 79 152 6.0 12.0 0.00 0.00 0.00 48 1018.5
20260509160006 79 154 3.0 10.0 0.00 0.00 0.00 48 1018.5
20260509155004 78 209 2.0 16.0 0.00 0.00 0.00 48 1018.6
20260509153003 78 157 3.0 9.0 0.00 0.00 0.00 48 1018.5
20260509152003 77 176 1.0 3.0 0.00 0.00 0.00 50 1018.4
20260509151004 74 249 1.0 2.0 0.00 0.00 0.00 53 1018.3
20260509150004 73 1 0.0 3.0 0.00 0.00 0.00 54 1018.4
20260509145003 73 152 0.0 5.0 0.00 0.00 0.00 56 1018.3
20260509144003 71 264 2.0 3.0 0.00 0.00 0.00 57 1018.5
20260509143003 70 32 1.0 3.0 0.00 0.00 0.00 58 1018.6
20260509141003 72 112 0.0 2.0 0.00 0.00 0.00 58 1018.5
20260509140005 70 92 0.0 1.0 0.00 0.00 0.00 60 1018.4
20260509135004 68 26 0.0 2.0 0.00 0.00 0.00 63 1018.4
20260509134004 70 61 1.0 3.0 0.00 0.00 0.00 60 1018.4
20260509133004 66 123 2.0 3.0 0.00 0.00 0.00 66 1018.4
20260509131003 62 90 0.0 0.0 0.00 0.00 0.00 73 1018.4
20260509130004 60 90 0.0 1.0 0.00 0.00 0.00 75 1018.2
20260509125004 60 234 0.0 2.0 0.00 0.00 0.00 76 1018.2
20260509124004 60 284 0.0 1.0 0.00 0.00 0.00 75 1018.2
20260509123004 60 106 0.0 1.0 0.00 0.00 0.00 76 1018.2
20260509122005 60 90 0.0 1.0 0.00 0.00 0.00 75 1017.9
20260509121004 60 127 0.0 3.0 0.00 0.00 0.00 74 1017.9
20260509115004 60 105 1.0 2.0 0.00 0.00 0.00 75 1017.8
20260509114004 60 144 0.0 2.0 0.00 0.00 0.00 75 1017.7
20260509113003 60 91 1.0 2.0 0.00 0.00 0.00 75 1017.7
20260509112003 60 103 1.0 2.0 0.00 0.00 0.00 76 1017.6
20260509111004 60 135 0.0 2.0 0.00 0.00 0.00 76 1017.7
20260509105003 61 246 1.0 2.0 0.00 0.00 0.00 74 1017.5
20260509104003 61 284 0.0 1.0 0.00 0.00 0.00 74 1017.5
20260509103004 61 100 1.0 1.0 0.00 0.00 0.00 74 1017.3
20260509102005 62 90 0.0 1.0 0.00 0.00 0.00 74 1017.6
20260509101004 61 90 0.0 1.0 0.00 0.00 0.00 72 1017.3
20260509100005 61 261 0.0 2.0 0.00 0.00 0.00 71 1017.5
20260509095004 61 123 0.0 2.0 0.00 0.00 0.00 71 1017.5
20260509094004 62 279 0.0 1.0 0.00 0.00 0.00 70 1017.5
20260509093004 62 263 0.0 1.0 0.00 0.00 0.00 70 1017.3
20260509092003 62 195 0.0 2.0 0.00 0.00 0.00 69 1017.3
20260509091003 63 250 0.0 2.0 0.00 0.00 0.00 68 1017.5
20260509090004 63 203 1.0 1.0 0.00 0.00 0.00 67 1017.3
20260509084004 63 139 0.0 1.0 0.00 0.00 0.00 66 1017.6
20260509082003 63 135 2.0 3.0 0.00 0.00 0.00 66 1017.8
20260509081005 64 126 1.0 3.0 0.00 0.00 0.00 64 1017.7
20260509075004 63 77 1.0 1.0 0.00 0.00 0.00 67 1017.8
20260509074004 63 113 0.0 3.0 0.00 0.00 0.00 67 1018.3
20260509072003 64 234 0.0 2.0 0.00 0.00 0.00 66 1018.2
20260509071005 64 225 1.0 2.0 0.00 0.00 0.00 67 1018.2
20260509070004 64 270 0.0 1.0 0.00 0.00 0.00 66 1018.5
20260509064004 65 306 2.0 5.0 0.00 0.00 0.00 61 1018.4
20260509062005 65 112 0.0 3.0 0.00 0.00 0.00 54 1018.5
20260509061004 66 248 1.0 6.0 0.00 0.00 0.00 56 1018.7
20260509060005 67 104 0.0 3.0 0.00 0.00 0.00 55 1018.7
20260509054004 66 99 2.0 3.0 0.00 0.00 0.00 63 1018.9
20260509053004 67 320 0.0 5.0 0.00 0.00 0.00 62 1019.0
20260509052004 69 82 0.0 3.0 0.00 0.00 0.00 55 1018.9
20260509050004 70 76 1.0 9.0 0.00 0.00 0.00 53 1018.4
20260509045004 70 96 3.0 9.0 0.00 0.00 0.00 52 1018.4
20260509044004 69 67 2.0 22.0 0.00 0.00 0.00 52 1018.2
20260509043004 70 138 6.0 22.0 0.00 0.00 0.00 52 1017.8
20260509042004 69 137 5.0 21.0 0.00 0.00 0.00 55 1017.5
20260509041004 70 154 8.0 25.0 0.00 0.00 0.00 54 1017.4
20260509040005 71 139 9.0 20.0 0.00 0.00 0.00 56 1017.4
20260509035005 71 138 7.0 20.0 0.00 0.00 0.00 56 1017.2
20260509033004 71 137 6.0 23.0 0.00 0.00 0.00 64 1017.0
20260509031005 71 142 9.0 26.0 0.00 0.00 0.00 63 1016.6